Temp
18 19 19 19 18 18 18 18 18 17 15 15 13 12 12 11 11 11 11 13 14 14 14 15 15 16 14 12 12 13 12 11 12 12 10 11 11 11 11 11 10 10 9 9
18 18 17 16 17 17 17 18 17 16 15 15 14 13 12 11 10 11 11 11 12 13 13 13 13 12 12 13 12 12 12 13 12 12 11 11 11 11 11 10 9 9 9 8
17 18 17 17 16 18 16 17 17 17 16 15 15 15 13 12 10 9 9 10 11 12 12 13 12 12 13 13 13 13 13 12 12 12 12 11 11 10 10 9 9 8 7 7
17 16 17 17 17 17 17 16 16 16 17 18 15 19 14 12 11 11 10 10 11 12 12 12 13 13 13 12 12 12 12 12 11 11 11 10 10 9 9 8 8 7 6 6
17 17 17 17 16 17 16 15 16 15 16 16 16 18 14 12 12 12 11 10 10 11 11 12 12 12 12 12 12 12 11 11 11 10 10 9 9 8 8 7 6 6 5 5
15 16 16 17 15 15 14 16 14 14 15 16 15 16 16 13 14 13 11 11 11 11 12 12 12 12 12 12 12 11 11 11 10 10 9 9 8 7 6 6 5 5 4 4
16 16 16 16 17 16 16 16 15 15 15 15 13 14 16 14 13 14 12 11 11 12 12 12 12 12 12 12 12 11 10 10 10 9 8 8 7 6 6 5 5 4 3 3
15 16 16 16 17 17 15 16 15 15 14 15 13 15 16 13 13 13 13 12 12 12 12 12 11 11 11 10 10 10 10 9 9 8 7 7 6 5 5 4 4 3 2 2
15 15 16 15 15 16 15 15 13 12 8 12 14 14 14 12 12 12 12 11 12 12 11 11 10 10 10 10 9 9 9 8 8 7 6 6 5 5 4 4 3 3 2 2
14 15 15 15 15 14 16 13 14 13 13 14 14 13 15 13 12 12 12 12 11 12 11 11 11 10 10 9 9 9 8 7 7 6 6 5 4 4 4 3 3 2 2 1
14 14 14 15 15 15 15 14 11 12 11 13 13 15 13 14 13 13 13 12 12 11 11 10 9 9 9 8 8 8 7 7 6 5 5 5 4 4 3 3 2 1 1 0
12 12 13 15 14 13 14 14 13 13 12 9 10 14 12 12 12 11 11 11 11 11 10 9 8 8 8 8 7 7 7 6 5 5 5 4 4 3 2 1 1 0 -0 -1
12 12 13 14 15 14 14 13 10 9 9 11 11 14 11 10 10 11 11 10 10 9 8 8 8 8 8 8 8 7 6 5 5 4 4 4 3 2 1 0 -0 -1 -1 -1
13 11 13 14 14 13 13 12 11 12 11 11 12 13 12 12 10 8 8 9 8 8 8 8 8 7 7 7 6 5 4 5 4 4 4 3 2 1 0 -0 -1 -1 -1 -2
12 13 11 10 10 11 12 12 11 12 12 13 13 12 13 13 11 9 7 7 7 7 7 7 7 7 7 6 5 4 4 4 4 3 2 1 1 0 -0 -1 -1 -2 -2 -2
9 11 10 10 8 8 10 11 11 10 10 11 10 11 12 9 8 7 6 6 6 7 7 7 6 6 6 5 5 4 4 3 3 2 1 1 0 -1 -1 -2 -2 -2 -3 -3
9 8 9 10 7 8 9 11 11 11 10 12 12 14 9 8 8 8 7 6 7 8 7 7 6 6 5 4 4 4 3 2 1 1 0 -0 -1 -1 -2 -2 -3 -3 -4 -4
7 6 5 8 5 11 13 10 10 11 10 10 10 10 9 9 8 8 8 8 8 7 7 6 6 5 4 4 4 3 2 1 1 0 -1 -1 -1 -2 -3 -3 -4 -4 -4 -5
6 5 5 8 9 10 13 9 10 10 12 10 11 9 7 6 7 7 8 8 8 7 6 6 5 5 4 3 3 2 2 1 0 -0 -1 -1 -2 -2 -3 -4 -4 -4 -5 -6
6 5 8 5 9 10 11 10 10 10 11 10 9 7 5 6 8 11 9 8 7 6 5 5 4 4 3 3 2 2 1 0 -0 -1 -1 -2 -2 -3 -4 -5 -5 -5 -6 -6
5 4 7 2 8 8 8 9 10 11 12 9 10 9 6 8 9 9 9 7 6 5 5 4 4 3 3 2 2 1 0 -0 -1 -1 -2 -2 -3 -4 -6 -6 -6 -6 -7 -7
8 6 5 2 6 9 8 9 10 11 11 11 11 12 11 9 8 8 8 6 5 4 3 3 3 2 2 1 1 0 -0 -1 -1 -2 -2 -3 -4 -6 -7 -7 -7 -7 -7 -8
8 8 8 8 9 9 9 10 11 10 10 11 11 11 10 8 7 6 5 5 4 3 2 2 2 2 1 1 -0 -1 -1 -2 -2 -2 -2 -4 -6 -6 -6 -7 -7 -8 -8 -8
7 5 7 7 10 7 9 11 11 11 11 10 10 10 10 8 6 4 4 2 1 2 1 2 2 1 1 -0 -1 -1 -1 -2 -2 -2 -3 -5 -7 -7 -7 -7 -7 -8 -9 -9
7 6 7 7 8 9 11 11 11 11 11 9 9 8 7 6 5 4 2 0 0 -1 1 1 1 0 -0 -1 -1 -1 -2 -2 -2 -3 -5 -6 -6 -7 -7 -7 -8 -8 -8 -9
6 7 7 7 9 9 10 10 9 9 9 8 7 6 5 5 3 1 -0 -1 0 1 1 1 0 -0 -1 -1 -1 -2 -2 -2 -3 -5 -6 -6 -6 -6 -7 -7 -8 -8 -9 -9
Height
1496 1499 1504 1503 1504 1506 1510 1514 1517 1521 1524 1528 1537 1539 1539 1538 1537 1539 1540 1542 1545 1547 1549 1550 1552 1552 1554 1557 1560 1563 1563 1567 1568 1570 1573 1574 1577 1579 1580 1578 1577 1576 1573 1571
1500 1507 1504 1504 1506 1509 1512 1515 1521 1525 1524 1526 1536 1538 1540 1539 1540 1541 1542 1543 1544 1546 1549 1550 1551 1553 1555 1555 1558 1561 1564 1567 1568 1571 1573 1575 1577 1577 1577 1575 1575 1572 1570 1568
1503 1505 1504 1506 1510 1510 1516 1517 1521 1522 1526 1528 1530 1534 1538 1540 1541 1543 1544 1544 1545 1546 1548 1550 1553 1555 1557 1560 1562 1564 1566 1566 1569 1572 1575 1576 1576 1576 1574 1574 1573 1570 1568 1566
1507 1506 1506 1510 1513 1511 1518 1517 1518 1521 1522 1527 1532 1529 1535 1539 1543 1545 1544 1544 1545 1548 1551 1553 1555 1556 1558 1560 1563 1565 1566 1567 1569 1572 1574 1575 1574 1573 1571 1570 1569 1567 1565 1563
1511 1510 1510 1513 1514 1510 1520 1518 1519 1524 1527 1529 1531 1531 1535 1541 1541 1541 1543 1544 1547 1550 1552 1554 1556 1558 1559 1560 1562 1565 1566 1568 1570 1571 1570 1572 1571 1569 1567 1567 1566 1564 1562 1561
1507 1507 1509 1510 1512 1511 1517 1520 1525 1530 1531 1536 1535 1535 1530 1535 1530 1537 1542 1544 1546 1549 1552 1555 1556 1558 1559 1561 1562 1564 1564 1566 1567 1568 1568 1568 1567 1566 1565 1565 1564 1562 1559 1557
1511 1512 1510 1509 1513 1515 1516 1522 1536 1538 1540 1538 1538 1539 1522 1527 1529 1529 1536 1540 1544 1548 1551 1552 1554 1555 1557 1557 1556 1561 1563 1563 1564 1564 1565 1565 1564 1564 1564 1562 1560 1558 1555 1552
1518 1523 1513 1512 1513 1516 1522 1522 1533 1544 1544 1538 1538 1533 1519 1525 1526 1527 1531 1537 1542 1545 1548 1550 1552 1554 1556 1557 1558 1560 1561 1561 1561 1562 1562 1562 1562 1561 1560 1558 1556 1553 1550 1546
1517 1520 1513 1513 1513 1516 1524 1528 1530 1544 1560 1548 1536 1529 1522 1524 1525 1527 1531 1536 1539 1543 1545 1548 1551 1553 1554 1555 1556 1558 1559 1560 1560 1560 1560 1559 1558 1557 1555 1553 1550 1547 1544 1541
1511 1521 1516 1514 1514 1517 1516 1524 1531 1537 1547 1545 1535 1534 1520 1523 1524 1527 1530 1533 1536 1540 1543 1546 1548 1549 1551 1553 1555 1557 1557 1557 1558 1557 1556 1555 1554 1552 1550 1548 1546 1543 1540 1536
1508 1514 1521 1517 1517 1518 1522 1525 1534 1536 1544 1540 1545 1525 1520 1518 1520 1522 1525 1529 1532 1536 1539 1542 1544 1547 1550 1552 1553 1554 1555 1554 1554 1553 1552 1552 1550 1549 1547 1544 1541 1538 1535 1532
1508 1517 1525 1519 1518 1518 1518 1521 1525 1533 1541 1552 1548 1527 1520 1519 1520 1522 1524 1527 1530 1533 1536 1539 1543 1546 1548 1550 1551 1550 1551 1551 1550 1551 1550 1549 1547 1545 1542 1540 1537 1534 1530 1526
1507 1518 1527 1523 1521 1518 1517 1521 1527 1533 1538 1541 1541 1523 1519 1519 1518 1519 1522 1524 1527 1530 1534 1538 1542 1543 1544 1545 1547 1549 1549 1549 1549 1548 1547 1546 1543 1541 1539 1536 1532 1528 1524 1520
1504 1515 1514 1518 1515 1517 1519 1520 1524 1523 1534 1533 1527 1517 1515 1515 1516 1518 1519 1522 1525 1529 1533 1537 1539 1540 1541 1542 1545 1546 1546 1547 1546 1545 1543 1541 1539 1537 1534 1531 1527 1523 1519 1513
1506 1512 1516 1520 1521 1519 1516 1517 1521 1520 1520 1520 1514 1516 1507 1508 1510 1514 1517 1520 1524 1528 1532 1534 1536 1537 1540 1541 1541 1543 1544 1544 1542 1541 1538 1536 1534 1532 1529 1526 1522 1517 1513 1507
1509 1516 1518 1521 1524 1524 1520 1517 1518 1519 1518 1515 1516 1509 1505 1506 1508 1512 1514 1518 1522 1525 1528 1530 1532 1535 1537 1538 1539 1540 1540 1539 1537 1536 1534 1532 1530 1527 1524 1520 1516 1511 1507 1502
1511 1517 1521 1523 1530 1526 1524 1509 1507 1508 1507 1503 1509 1496 1503 1505 1505 1506 1509 1513 1517 1521 1524 1526 1529 1531 1533 1535 1536 1536 1535 1534 1532 1530 1529 1527 1525 1522 1518 1514 1509 1505 1501 1498
1513 1520 1530 1527 1535 1526 1498 1499 1500 1501 1499 1499 1498 1498 1499 1500 1501 1503 1506 1510 1514 1518 1521 1524 1526 1528 1530 1531 1532 1532 1530 1529 1527 1525 1524 1522 1518 1515 1511 1507 1504 1500 1497 1494
1509 1517 1533 1525 1526 1513 1494 1499 1500 1500 1492 1490 1492 1496 1498 1500 1502 1502 1504 1508 1512 1515 1518 1520 1523 1525 1525 1528 1528 1527 1526 1524 1522 1520 1518 1516 1512 1508 1505 1502 1498 1495 1492 1490
1513 1514 1516 1535 1523 1519 1498 1496 1495 1496 1498 1488 1490 1493 1496 1499 1502 1495 1499 1504 1508 1511 1514 1517 1521 1525 1524 1524 1524 1523 1521 1519 1518 1516 1513 1510 1506 1503 1500 1497 1494 1491 1488 1486
1522 1525 1521 1542 1521 1511 1496 1496 1496 1503 1497 1487 1487 1489 1493 1495 1493 1493 1495 1500 1504 1508 1512 1515 1517 1519 1521 1521 1519 1519 1517 1515 1513 1511 1508 1505 1502 1498 1495 1491 1489 1487 1485 1484
1510 1518 1523 1538 1528 1512 1493 1496 1499 1490 1486 1486 1485 1485 1486 1488 1490 1492 1494 1498 1502 1507 1511 1517 1517 1517 1517 1516 1515 1514 1512 1510 1508 1506 1502 1499 1496 1493 1491 1488 1484 1483 1481 1480
1507 1502 1504 1507 1499 1491 1490 1488 1487 1487 1486 1485 1486 1485 1485 1486 1489 1491 1495 1498 1502 1504 1507 1513 1514 1513 1512 1512 1511 1508 1507 1505 1502 1499 1496 1493 1491 1488 1486 1483 1481 1478 1477 1476
1499 1499 1500 1500 1487 1487 1487 1487 1485 1484 1484 1484 1484 1484 1484 1485 1489 1492 1496 1501 1504 1510 1511 1509 1510 1509 1508 1508 1506 1504 1502 1499 1497 1493 1490 1488 1485 1483 1480 1479 1476 1474 1473 1471
1494 1497 1496 1496 1486 1485 1483 1483 1483 1482 1481 1480 1480 1480 1481 1483 1486 1489 1491 1496 1500 1504 1508 1507 1506 1505 1504 1503 1501 1499 1496 1494 1491 1488 1485 1483 1481 1478 1475 1474 1471 1470 1468 1467
1490 1489 1492 1489 1485 1484 1482 1482 1480 1479 1478 1477 1478 1479 1481 1484 1486 1490 1496 1499 1500 1501 1503 1503 1502 1500 1499 1498 1496 1494 1491 1488 1485 1483 1480 1478 1475 1473 1470 1468 1467 1465 1464 1462
Wind_Speed
3 3 3 2 2 3 4 3 4 3 4 6 5 4 7 4 7 9 9 11 11 9 7 6 5 7 10 11 10 13 16 11 3 9 11 10 5 4 1 5 8 10 10 10
4 3 2 5 5 5 4 6 3 3 3 4 4 8 7 5 2 5 11 12 12 13 11 9 7 8 7 7 8 8 11 13 15 12 10 6 3 3 7 11 11 13 14 13
5 1 3 3 4 8 5 6 3 4 4 6 3 2 2 5 6 6 8 13 17 19 20 17 16 19 23 23 22 20 20 19 16 11 6 2 0 3 7 10 12 12 10 12
5 3 4 3 3 2 4 2 4 6 2 2 2 3 1 2 4 7 12 15 20 21 17 19 24 25 24 22 19 17 15 13 10 6 3 4 5 7 9 10 10 8 11 16
1 2 4 3 0 2 4 3 4 3 4 2 1 2 1 3 6 11 13 15 16 15 16 23 23 21 19 18 16 12 11 9 6 5 4 7 8 8 8 8 7 11 14 17
3 2 3 2 3 4 8 5 5 3 2 1 1 3 3 6 8 13 14 14 16 15 20 21 20 18 17 15 11 10 8 10 7 4 5 6 7 6 6 7 11 14 16 18
4 3 3 3 4 3 4 4 2 1 1 3 2 2 5 4 6 19 20 18 19 19 22 22 20 18 16 14 6 12 11 7 4 4 5 5 5 6 9 12 14 14 17 18
3 0 3 4 2 4 2 3 4 4 3 1 0 4 2 4 7 18 23 22 22 21 22 21 18 16 15 11 8 10 8 5 3 4 3 4 6 9 10 12 13 15 17 18
4 1 1 3 1 1 4 2 2 6 2 1 2 3 5 2 4 13 20 20 22 22 22 19 17 16 15 11 10 8 6 4 2 2 3 5 8 10 12 13 14 16 18 21
4 3 1 1 1 7 1 7 3 2 3 3 2 4 4 4 8 11 17 22 21 21 19 17 17 16 14 11 9 6 3 1 2 3 5 8 11 15 17 16 18 20 21 22
3 3 2 1 0 5 2 2 5 4 1 2 1 4 3 8 11 16 21 21 22 19 17 15 15 14 12 8 4 1 2 1 3 6 9 11 14 15 16 18 19 20 23 26
1 4 3 2 0 1 1 3 4 3 4 1 1 5 1 5 9 11 16 18 18 17 16 16 15 12 10 6 4 2 3 7 7 9 11 11 16 19 19 16 20 23 26 24
5 1 3 2 2 1 3 3 4 5 2 5 4 4 2 3 6 15 17 17 19 19 19 17 13 11 8 4 3 5 8 6 7 7 12 18 20 17 16 18 22 25 27 29
4 3 4 6 3 2 4 4 4 4 3 4 6 4 5 6 7 9 16 19 21 22 19 16 12 9 5 4 6 7 6 5 7 13 18 18 15 14 16 21 25 27 29 28
3 4 2 1 1 1 2 4 9 8 4 7 4 9 6 7 11 15 16 21 23 22 19 15 11 9 8 7 5 5 3 7 13 16 15 13 13 14 21 24 27 29 27 25
2 3 2 3 1 3 4 5 6 7 4 11 5 14 8 3 8 14 20 23 22 22 17 13 12 11 8 7 6 3 6 12 15 14 13 13 13 20 23 26 28 27 25 24
2 5 3 3 3 3 5 9 13 6 6 8 10 9 6 6 13 20 23 24 23 20 16 14 12 9 9 7 4 7 10 13 14 13 10 12 18 22 24 27 26 25 23 21
5 4 2 2 2 1 4 2 2 10 7 12 4 4 7 4 9 16 22 26 23 17 15 13 10 10 8 6 7 9 12 14 14 12 13 16 20 23 25 26 23 22 22 17
3 4 3 2 3 5 5 2 5 6 5 11 13 4 4 6 6 8 21 21 18 14 14 11 12 10 8 7 8 12 14 14 14 14 16 19 22 25 26 24 22 21 18 17
5 5 3 3 2 5 5 2 4 4 4 1 8 7 10 11 4 5 24 23 18 15 13 12 10 8 6 7 12 14 15 15 16 17 18 21 24 24 25 22 21 20 17 13
2 3 3 2 3 7 6 2 3 3 4 4 13 13 18 8 9 4 13 24 17 14 15 11 10 7 8 10 14 15 15 16 17 18 21 23 22 21 23 20 18 14 16 14
5 6 3 3 1 6 7 4 4 3 4 5 11 13 18 21 12 9 14 20 18 17 9 9 6 7 10 13 15 15 16 17 19 22 24 23 23 22 19 21 19 16 15 13
3 5 4 8 5 4 11 8 10 8 8 6 9 13 19 20 16 15 17 18 20 9 13 5 10 9 12 14 15 15 16 19 22 24 24 22 24 21 21 21 19 16 16 16
3 5 2 1 2 9 16 18 23 23 23 14 14 13 16 20 15 16 19 14 11 8 4 9 9 11 12 13 14 17 20 22 24 24 21 20 21 20 17 19 17 13 14 17
2 7 3 4 11 13 11 11 13 15 18 19 17 13 13 15 19 20 20 19 14 7 10 9 10 11 12 14 16 18 20 23 23 22 21 19 19 20 18 20 17 15 16 15
7 4 4 4 4 5 9 12 14 13 11 10 9 8 10 15 21 21 14 10 3 7 8 10 11 12 13 15 17 19 21 22 21 21 20 18 19 19 19 20 19 18 17 17
Wind_Direction
17 105 119 120 97 128 142 123 124 64 37 86 77 85 22 48 120 142 156 165 177 189 205 228 246 249 228 212 229 248 232 235 181 101 143 149 155 150 31 349 338 329 322 320
43 80 353 74 90 100 126 123 88 105 25 98 153 74 59 58 110 172 165 165 157 140 131 128 120 101 102 125 159 168 136 120 99 106 118 122 121 354 337 338 327 327 320 318
117 142 98 83 76 101 58 104 138 122 117 78 134 100 63 63 86 129 155 149 140 138 129 125 122 118 114 115 118 119 113 103 106 115 105 83 345 316 315 306 305 303 306 319
75 348 93 86 89 126 86 21 108 117 108 157 321 251 293 115 131 159 154 152 147 145 142 134 131 127 124 120 118 119 118 122 126 141 188 258 287 299 301 302 299 308 324 326
173 140 107 79 36 79 125 100 84 92 94 136 50 242 93 166 195 186 180 177 168 160 149 143 141 136 133 130 130 136 144 155 173 207 248 280 301 311 314 311 319 328 325 326
86 39 70 116 48 60 149 90 59 65 91 210 113 227 199 200 213 186 193 192 180 164 156 157 157 155 155 152 152 163 162 185 204 245 272 294 316 332 343 330 320 320 319 322
14 355 343 58 87 76 86 71 14 5 19 239 33 195 264 209 214 189 188 192 184 175 171 175 175 175 176 175 206 197 195 196 225 282 305 319 333 337 330 321 316 309 317 318
142 69 16 349 92 148 81 158 160 204 205 267 195 233 225 266 237 195 187 184 184 185 187 193 192 191 194 201 210 198 206 221 277 309 306 317 328 334 325 311 309 311 316 314
134 107 346 50 119 164 161 118 124 106 41 283 264 264 263 32 158 173 177 182 190 194 198 198 199 203 208 226 201 200 218 249 307 319 319 333 330 315 304 300 305 313 312 307
181 113 11 47 93 52 111 137 124 42 160 244 274 277 252 215 188 180 184 191 196 197 200 206 211 211 208 193 193 208 236 323 296 282 301 312 313 316 314 306 306 305 311 314
132 107 256 237 261 167 139 125 67 104 117 177 299 259 222 243 196 194 197 196 197 198 200 205 194 185 183 189 205 198 134 260 281 309 311 307 314 315 309 307 308 316 321 319
129 126 145 183 114 301 173 151 140 129 189 78 106 273 249 282 233 207 202 196 195 195 190 179 174 173 180 186 183 165 349 309 312 293 298 309 314 313 311 315 324 326 323 318
184 79 97 15 354 344 210 152 113 106 100 188 159 255 194 271 245 211 194 190 188 186 178 176 177 181 187 199 245 296 327 309 283 297 309 312 315 317 317 321 324 326 324 322
110 120 165 192 187 149 180 177 169 142 150 171 229 257 233 229 214 199 187 188 182 180 178 177 183 188 188 206 257 312 279 273 302 309 311 314 316 312 312 321 323 324 324 322
103 160 145 107 47 272 237 183 185 206 174 196 226 224 242 233 214 196 184 176 175 177 180 186 192 188 197 206 271 212 242 304 311 316 319 308 303 305 316 317 320 323 324 322
22 166 136 191 8 9 277 248 214 229 224 251 243 266 222 257 183 176 184 179 181 183 186 195 192 196 204 190 187 216 293 314 323 322 309 294 295 311 314 317 322 325 323 323
100 136 117 248 354 350 312 223 210 200 209 211 224 243 175 199 201 194 188 189 188 191 198 199 199 198 191 188 226 287 308 319 318 315 306 297 308 312 316 322 324 323 323 323
126 101 68 169 3 262 251 182 182 226 242 216 247 200 196 232 218 212 203 195 194 198 201 199 202 191 193 230 270 303 314 316 314 313 307 309 312 316 321 323 322 321 317 321
52 122 97 154 209 304 277 199 186 180 286 209 223 176 168 164 170 217 202 203 205 212 205 205 195 196 221 255 294 310 310 310 311 309 309 313 317 321 321 320 320 319 317 321
60 60 108 136 183 237 247 271 200 172 284 224 196 182 169 151 183 235 207 205 206 201 199 191 189 224 241 285 305 309 307 307 310 310 312 316 319 318 316 316 318 318 317 312
49 15 166 133 236 285 255 263 150 106 248 187 191 193 173 199 210 214 194 201 202 196 185 187 207 227 274 298 308 308 307 307 308 310 313 313 315 316 312 319 316 315 308 303
173 155 180 110 201 275 191 128 177 233 221 216 207 207 211 214 211 189 179 183 180 168 175 210 222 266 293 307 309 308 308 310 311 313 313 311 312 314 316 316 314 305 298 295
225 200 179 197 219 242 204 234 234 264 263 269 263 252 229 218 208 189 172 170 165 200 167 208 258 282 305 309 307 311 314 310 311 312 311 308 308 308 305 308 309 297 289 284
234 169 212 134 250 242 259 260 266 275 267 281 287 286 254 226 190 168 160 153 145 140 224 240 276 301 308 307 311 315 313 314 315 314 311 311 314 315 304 304 303 290 291 286
201 154 177 261 280 286 289 297 308 295 285 282 279 267 236 210 184 173 161 155 157 171 247 274 295 305 309 314 316 315 315 315 313 314 317 319 315 316 307 304 294 293 303 285
187 189 176 233 321 254 294 327 321 319 304 285 257 203 176 185 160 148 136 131 134 215 265 289 299 309 313 314 316 317 316 313 312 314 321 318 315 315 314 304 296 294 299 307